Regional Weather Roundup
Issued by NWS State College, PA

Home | Current Version | Previous Version | Graphics & Text | Print | Product List | Glossary Off
Versions: 1 2 3 4 5 6 7 8 9 10 11 12 13 14 15 16 17 18 19 20 21 22 23 24 25 26 27 28 29 30 31 32 33 34 35 36 37 38 39 40 41 42 43 44 45 46 47 48 49 50

000
ASUS41 KCTP 300710
RWRCTP

REGIONAL WEATHER ROUNDUP
NATIONAL WEATHER SERVICE STATE COLLEGE PA
300 AM EDT SAT AUG 30 2014

Note: "fair" indicates few or no clouds below 12,000 feet with no
significant weather and/or obstructions to visibility.

* = STATION THAT DOES NOT REPORT PRECIPITATION /E.G. RAIN...SNOW...ETC/
    THUNDER OR FOG.

PAZ002>004-007>009-013>016-020>023-029>032-300800-
WESTERN PENNSYLVANIA

CITY           SKY/WX    TMP DP  RH WIND       PRES   REMARKS
ERIE           CLEAR     66  54  65 S14       30.07F
MEADVILLE      CLEAR     63  54  72 VRB3      30.13R
FRANKLIN*      CLEAR     61  54  77 SE6       30.15S
NEW CASTLE     FAIR      58  57  96 CALM      30.12F
BEAVER COUNTY  NOT AVBL
BUTLER*        CLEAR     63  54  72 SE5       30.14F
PITTSBURGH INT CLEAR     63  57  81 S3        30.12S
PITTSBURGH     CLEAR     63  56  78 SE6       30.12S
INDIANA*       PTCLDY    66  57  72 S7G13     30.19S
LATROBE        CLEAR     61  61 100 CALM      30.14S
WASHINGTON CO* CLEAR     55  54  94 CALM      30.13S
$$

PAZ004>006-010>012-017>019-024>028-033>037-041-042-045-046-049>053-300800-
CENTRAL PENNSYLVANIA

CITY           SKY/WX    TMP DP  RH WIND       PRES   REMARKS
BRADFORD       CLEAR     56  51  84 SE5       30.18F
DUBOIS         CLEAR     60  54  80 SE8       30.16F
CLEARFIELD     CLEAR     52  52 100 N6        30.19F
JOHNSTOWN      CLEAR     61  54  77 S6        30.20F
ALTOONA        CLEAR     60  54  80 CALM      30.21F
STATE COLLEGE  PTCLDY    59  53  79 CALM      30.20S
WILLIAMSPORT   CLEAR     57  52  83 CALM      30.20S
SELINSGROVE    CLEAR     53  51  93 CALM      30.23R
FT INDIANTOWN  CLEAR     53  53 100 N2        30.25R
CAPITAL CITY   MOCLDY    64  57  78 E3        30.23S
HARRISBURG     MOCLDY    63  56  78 E5        30.22S
YORK           CLOUDY    64  60  87 CALM      30.23S
$$

PAZ038>040-043-044-047-048-054-055-060>062-067>071-300800-
EASTERN PENNSYLVANIA

CITY           SKY/WX    TMP DP  RH WIND       PRES   REMARKS
SCRANTON       CLEAR     63  57  81 S5        30.24S
MOUNT POCONO   CLOUDY    59  52  77 S7        30.28R
ALLENTOWN      CLEAR     57  54  89 N3        30.25R
QUAKERTOWN*    SUNNY     55  54  94 CALM      30.26S
READING        CLEAR     62  56  80 CALM      30.24R
LANCASTER      MOCLDY    58  55  90 E5        30.24S
COATESVILLE    MOSUNNY   57  57 100 CALM      30.26S
POTTSTOWN      CLEAR     57  55  93 CALM      30.26S
BLUE BELL      CLEAR     54  54 100 CALM      30.24F
DOYLESTOWN     CLEAR     56  56 100 CALM      30.24F
WILLOW GROVE   NOT AVBL
NORTH PHILA    CLEAR     61  55  81 CALM      30.26S
PHILADELPHIA   PTCLDY    63  58  83 E5        30.25S
$$


USA.gov is the U.S. government's official web portal to all federal, state and local government web resources and services.